This demonstration page uses our WeatherBlox Daily Observations layout. Learn more.

Left ArrowRight Arrow

39.01783, -85.05884

Hourly Observations for March 26, 2021

Temp ( °F °C ) Dew Point ( °F °C ) Humidity (%) Winds ( mph kmh ) Pressure ( in mb ) Visibility ( mi km ) Precip ( " mm )
12:02 am 00:02 Windy with Storms Likely 64 17.8 59 15 84 84 S 31 50 29.49 999 6 10 0.00 0.00
12:23 am 00:23 Cloudy 65 18.3 59 15 81 81 SSW 24 39 29.52 1000 10 16 0.01 0.25
12:47 am 00:47 Mostly Cloudy with Light Rain 63 17 55 13 77 77 WSW 17 28 29.57 1001 10 16 0.01 0.25
12:52 am 00:52 Mostly Cloudy 62 16.7 55 12.8 78 78 SW 21 33 29.56 1001 10 16 0.01 0.25
1:52 am 01:52 Partly Cloudy 63 17.2 53 11.7 70 70 SW 18 30 29.57 1001 10 16 0.00 0.00
2:52 am 02:52 Mostly Cloudy 60 15.6 48 8.9 65 65 WSW 22 35 29.63 1003 10 16 0.00 0.00
3:52 am 03:52 Cloudy 57 13.9 46 7.8 67 67 WSW 21 33 29.68 1005 10 16 0.00 0.00
4:26 am 04:26 Cloudy 56 13.3 47 8.3 72 72 WSW 18 30 29.73 1007 10 16 0.00 0.00
4:52 am 04:52 Cloudy 56 13.3 47 8.3 72 72 W 15 24 29.74 1007 10 16 0.00 0.00
5:15 am 05:15 Cloudy 55 12.8 45 7.2 69 69 W 17 28 29.78 1009 10 16 0.00 0.00
5:52 am 05:52 Mostly Cloudy 54 12.2 45 7.2 72 72 W 18 30 29.80 1009 10 16 0.00 0.00
6:07 am 06:07 Cloudy 54 12.2 45 7.2 72 72 W 16 26 29.83 1010 10 16 0.00 0.00
6:52 am 06:52 Cloudy 54 12.2 47 8.3 77 77 WSW 10 17 29.85 1011 10 16 0.00 0.00
7:52 am 07:52 Cloudy 53 11.7 46 7.8 77 77 W 15 24 29.90 1013 10 16 0.00 0.00
8:52 am 08:52 Cloudy 53 11.7 46 7.8 77 77 W 10 17 29.95 1014 10 16 0.00 0.00
9:52 am 09:52 Cloudy 53 11.7 46 7.8 77 77 WSW 7 11 29.99 1016 10 16 0.00 0.00
10:52 am 10:52 Cloudy 54 12.2 46 7.8 75 75 W 10 17 30.02 1017 10 16 0.00 0.00
11:52 am 11:52 Cloudy 53 11.7 46 7.8 77 77 W 7 11 30.04 1017 10 16 0.00 0.00
12:52 pm 12:52 Cloudy 55 12.8 46 7.8 72 72 W 8 13 30.06 1018 10 16 0.00 0.00
1:18 pm 13:18 Cloudy 55 12.8 46 7.8 72 72 W 7 11 30.09 1019 10 16 0.00 0.00
1:52 pm 13:52 Cloudy 54 12.2 47 8.3 77 77 W 6 9 30.07 1018 10 16 0.00 0.00
2:52 pm 14:52 Cloudy 55 12.8 46 7.8 72 72 SSW 9 15 30.07 1018 10 16 0.00 0.00
3:52 pm 15:52 Cloudy 56 13.3 46 7.8 70 70 W 9 15 30.07 1018 10 16 0.00 0.00
4:30 pm 16:30 Cloudy 55 12.8 46 7.8 72 72 WSW 9 15 30.08 1019 10 16 0.00 0.00
4:52 pm 16:52 Cloudy 55 12.8 46 7.8 72 72 WSW 7 11 30.07 1018 10 16 0.00 0.00
5:52 pm 17:52 Cloudy 56 13.3 46 7.8 70 70 W 9 15 30.08 1019 10 16 0.00 0.00
6:09 pm 18:09 Cloudy 56 13.3 46 7.8 70 70 WNW 7 11 30.09 1019 10 16 0.00 0.00
6:52 pm 18:52 Mostly Cloudy 55 12.8 46 7.8 72 72 W 8 13 30.10 1019 10 16 0.00 0.00
7:52 pm 19:52 Mostly Cloudy 54 12.2 45 7.2 72 72 WNW 5 7 30.10 1019 10 16 0.00 0.00
8:52 pm 20:52 Mostly Clear 51 10.6 45 7.2 80 80 W 3 6 30.11 1020 10 16 0.00 0.00
9:52 pm 21:52 Clear 49 9.4 43 6.1 80 80 NNW 3 6 30.12 1020 10 16 0.00 0.00
10:52 pm 22:52 Clear 47 8.3 43 6.1 86 86 Calm 30.12 1020 10 16 0.00 0.00
11:52 pm 23:52 Clear 46 7.8 42 5.6 86 86 Calm 30.12 1020 10 16 0.00 0.00

Powered by AerisWeather